Notices

What's New in latest Release from April 7th, 2021:

- Updated Glossary, including Speed of Maximum Gust, and Total Hourly Precipitation

- Updated national and regional climate services offices contacts and prices information

- Addition of station inventory lists for 1981-2010, 1971-2000, and 1961-1990 Normals.

If you haven't already, please take our survey and provide feedback about our website: https://eccc.sondage-survey.ca/f/LanguageSelection.aspx?s=442ca660-fcf1-47c0-95a9-59707d6fd709

Hourly Data Report for April 26, 2006

TORONTO CITY
ONTARIO

43°40'00.000" N
79°24'00.000" W
112.50 m
6158355
71508
XTO

Download Data

Hourly Data (April 2006)
Hourly Data Report for April 26, 2006
TIME
LST
Temp Definition
°C
Dew Point Definition
°C
Rel Hum Definition
%
Precip. Amount Definition
mm

Wind Dir Definition
10's deg

Wind Spd Definition
km/h
Visibility Definition
km
Stn Press Definition
kPa
Hmdx Definition


Wind Chill Definition


Weather Definition


00:00 3.1 -5.2 54   LegendMM LegendMM   100.18     LegendNANA
01:00 2.9 -5.3 55   LegendMM LegendMM   100.13     LegendNANA
02:00 2.3 -4.3 62   LegendMM LegendMM   100.10     LegendNANA
03:00 2.1 -3.7 65   LegendMM LegendMM   100.06     LegendNANA
04:00 1.4 -3.7 69   LegendMM LegendMM   100.01     LegendNANA
05:00 1.4 -4.1 67   LegendMM LegendMM   99.99     LegendNANA
06:00 1.7 -4.0 66   LegendMM LegendMM   100.05     LegendNANA
07:00 3.7 -2.8 62   LegendMM LegendMM   100.10     LegendNANA
08:00 5.9 -3.9 49   LegendMM LegendMM   100.07     LegendNANA
09:00 7.9 -2.7 47   LegendMM LegendMM   99.98     LegendNANA
10:00 9.4 -1.0 48   LegendMM LegendMM   99.89     LegendNANA
11:00 11.9 -2.9 35   LegendMM LegendMM   99.77     LegendNANA
12:00 11.9 0.9 47   LegendMM LegendMM   99.66     LegendNANA
13:00 13.3 1.0 43   LegendMM LegendMM   99.53     LegendNANA
14:00 15.7 -0.7 33   LegendMM LegendMM   99.48     LegendNANA
15:00 16.6 -0.4 31   LegendMM LegendMM   99.40     LegendNANA
16:00 17.5 -0.3 30   LegendMM LegendMM   99.31     LegendNANA
17:00 13.9 3.3 49   LegendMM LegendMM   99.33     LegendNANA
18:00 14.9 2.5 43   LegendMM LegendMM   99.31     LegendNANA
19:00 13.9 2.4 46   LegendMM LegendMM   99.34     LegendNANA
20:00 12.8 3.3 52   LegendMM LegendMM   99.42     LegendNANA
21:00 12.6 2.4 50   LegendMM LegendMM   99.49     LegendNANA
22:00 12.3 3.0 53   LegendMM LegendMM   99.51     LegendNANA
23:00 11.8 3.1 55   LegendMM LegendMM   99.51     LegendNANA

Notes on Data Quality.

Legend

  • E = Estimated
  • M = Missing
  • NA = Not Available*
  • [empty] = Indicates an unobserved value
Date modified: